Torna al catalogo

COSMOS 2498

AttivoNavigazionePO
NORAD 39763·PAYLOAD·🇷🇺 Russia

Lanciato May 23, 2014 da Plesetsk Cosmodrome

Loading…

Prossimi Passaggi (prossime 24 ore)

TLE

AggiornatoSource: Space-Track

Epoca: Sep 14, 2026, 13:29 UTC

1 39763U 14028C   26257.56209260 -.00000092  00000-0 -73132-3 0  9997
2 39763  82.4442  52.9009 0020560 238.1793 121.7285 12.42982730558658

Traccia COSMOS 2498 in tempo reale con AllMySat

Download on the App Store